[TLELIST] Archives

 

[list_settings.list_name] Current TLEs

April 28th 2022 PDT

HST 1 20580U 90037B 22118.13637899 .00003158 00000-0 17686-3 0 9992 2 20580 28.4691 142.1586 0002577 206.0802 183.2501 15.10348198558865 ISS (ZARYA) 1 25544U 98067A 22118.35856524 .00015398 00000-0 27935-3 0 9997 2 25544 51.6436 223.3665 0006329 45.3831 60.8736 15.49771140337459 CXO 1 25867U 99040B 22120.44554856 .00000624 00000-0 00000+0 0 9999 2 25867 46.7152 238.5796 8767931 232.2170 359.8828 0.37804302 22771 ____________________________________________________________________ These 2-Line ...Continue Reading

[list_settings.list_name] Current TLEs

April 27th 2022 PDT

HST 1 20580U 90037B 22116.84076576 .00002688 00000-0 14892-3 0 9990 2 20580 28.4692 150.7410 0002612 192.1615 338.6370 15.10340157558670 ISS (ZARYA) 1 25544U 98067A 22117.32502152 .00014907 00000-0 27105-3 0 9992 2 25544 51.6433 228.4854 0006291 42.2571 53.9282 15.49736983337294 CXO 1 25867U 99040B 22117.80215601 .00000701 00000-0 00000-0 0 9994 2 25867 46.7798 238.7405 8761990 232.1324 0.0443 0.37803654 11613 ____________________________________________________________________ These 2-Line ...Continue Reading

[list_settings.list_name] Current TLEs

April 26th 2022 PDT

HST 1 20580U 90037B 22115.84898196 .00002325 00000-0 12738-3 0 9994 2 20580 28.4692 157.3105 0002654 181.3640 346.1952 15.10334209558253 ISS (ZARYA) 1 25544U 98067A 22116.34680543 .00014149 00000-0 25797-3 0 9997 2 25544 51.6437 233.3316 0006356 38.1019 357.0097 15.49705708337146 CXO 1 25867U 99040B 22117.80215601 .00000701 00000-0 00000-0 0 9994 2 25867 46.7798 238.7405 8761990 232.1324 0.0443 0.37803654 11613 ____________________________________________________________________ These 2-Line ...Continue Reading

[list_settings.list_name] Current TLEs

April 25th 2022 PDT

HST 1 20580U 90037B 22114.51623878 .00002509 00000-0 13835-3 0 9993 2 20580 28.4692 166.1383 0002724 167.2635 299.5368 15.10328272558057 ISS (ZARYA) 1 25544U 98067A 22115.38385056 .00013206 00000-0 24161-3 0 9998 2 25544 51.6439 238.1008 0006263 35.6048 23.7398 15.49676524336996 CXO 1 25867U 99040B 22115.15802053 .00000842 00000-0 00000+0 0 9998 2 25867 46.8210 238.8699 8756775 232.0780 0.0590 0.37807102 22751 ____________________________________________________________________ These 2-Line ...Continue Reading

[list_settings.list_name] Current TLEs

April 24th 2022 PDT

HST 1 20580U 90037B 22114.24202251 .00002661 00000-0 14740-3 0 9996 2 20580 28.4692 167.9544 0002764 165.0947 247.7861 15.10327463558279 ISS (ZARYA) 1 25544U 98067A 22114.36001664 -.00007246 00000-0 -12056-3 0 9994 2 25544 51.6435 243.1661 0006112 29.2843 74.5443 15.49635339336835 CXO 1 25867U 99040B 22115.15802053 .00000842 00000-0 00000+0 0 9998 2 25867 46.8210 238.8699 8756775 232.0780 0.0590 0.37807102 22751 ____________________________________________________________________ These 2-Line ...Continue Reading

[list_settings.list_name] Current TLEs

April 23rd 2022 PDT

HST 1 20580U 90037B 22112.87494834 .00002746 00000-0 15244-3 0 9997 2 20580 28.4692 177.0096 0002813 150.9998 14.1253 15.10320947558076 ISS (ZARYA) 1 25544U 98067A 22113.37981659 .00009283 00000-0 16916-3 0 9995 2 25544 51.6429 248.0214 0005250 51.0937 340.4886 15.50210836336687 CXO 1 25867U 99040B 22115.15802053 .00000842 00000-0 00000+0 0 9998 2 25867 46.8210 238.8699 8756775 232.0780 0.0590 0.37807102 22751 ____________________________________________________________________ These 2-Line ...Continue Reading

[list_settings.list_name] Current TLEs

April 22nd 2022 PDT

HST 1 20580U 90037B 22111.61037345 .00002700 00000-0 14977-3 0 9990 2 20580 28.4692 185.3858 0002872 138.0103 337.8023 15.10314839557874 ISS (ZARYA) 1 25544U 98067A 22112.41355956 .00008531 00000-0 15624-3 0 9994 2 25544 51.6429 252.8108 0005220 47.1392 348.4573 15.50189238336536 CXO 1 25867U 99040B 22112.51491406 .00000913 00000-0 00000+0 0 9990 2 25867 46.8803 239.0290 8753387 232.0053 0.1821 0.37810183 22748 ____________________________________________________________________ These 2-Line ...Continue Reading

[list_settings.list_name] Current TLEs

April 21st 2022 PDT

HST 1 20580U 90037B 22110.68847672 .00002585 00000-0 14292-3 0 9999 2 20580 28.4693 191.4921 0002899 128.7696 4.6328 15.10310074557476 ISS (ZARYA) 1 25544U 98067A 22111.39454714 .00008803 00000-0 16105-3 0 9999 2 25544 51.6428 257.8608 0005132 41.6208 63.4709 15.50171984336378 CXO 1 25867U 99040B 22112.51491406 .00000913 00000-0 00000+0 0 9990 2 25867 46.8803 239.0290 8753387 232.0053 0.1821 0.37810183 22748 ____________________________________________________________________ These 2-Line ...Continue Reading

[list_settings.list_name] Current TLEs

April 20th 2022 PDT

HST 1 20580U 90037B 22109.56287545 .00002566 00000-0 14182-3 0 9998 2 20580 28.4695 198.9476 0002934 117.4917 3.7567 15.10304838557304 ISS (ZARYA) 1 25544U 98067A 22110.42568448 .00008621 00000-0 15799-3 0 9998 2 25544 51.6420 262.6619 0005081 35.3246 59.3729 15.50154116336229 CXO 1 25867U 99040B 22112.51491406 .00000913 00000-0 00000+0 0 9990 2 25867 46.8803 239.0290 8753387 232.0053 0.1821 0.37810183 22748 ____________________________________________________________________ These 2-Line ...Continue Reading

[list_settings.list_name] Current TLEs

April 19th 2022 PDT

HST 1 20580U 90037B 22108.70306699 .00002400 00000-0 13194-3 0 9994 2 20580 28.4697 204.6425 0002952 108.8473 8.2720 15.10300482557173 ISS (ZARYA) 1 25544U 98067A 22109.44738591 .00006441 00000-0 12018-3 0 9995 2 25544 51.6427 267.5068 0004851 40.1116 351.5752 15.50134584336075 CXO 1 25867U 99040B 22107.22679692 .00001018 00000-0 00000-0 0 9995 2 25867 47.0551 239.3883 8747393 231.8584 0.1543 0.37811776 11566 ____________________________________________________________________ These 2-Line ...Continue Reading
  • This mailing list is a public mailing list - anyone may join or leave, at any time.
  • This mailing list is announce-only.

International Space Station (ISS) / Hubble Space Telescope (HST) / Chandra X-Ray Observatory Orbital Data via EMAIL

Privacy Policy:

Private list